カタログに戻る

THOR ABLESTAR DEB *

運用中LEO
NORAD 13502·DEBRIS·🇺🇸 United States

打ち上げ Jun 29, 1961 から Cape Canaveral Space Force Station

Loading…

次のパス (今後24時間)

TLE

最新Source: Space-Track

元期: Sep 14, 2026, 04:46 UTC

1 13502U 61015KT  26257.19903057  .00003203  00000-0  25758-2 0  9997
2 13502  66.4441 319.1825 0255283 181.8335 213.0234 13.77708413163030

AllMySatでTHOR ABLESTAR DEB *をリアルタイム追跡

Download on the App Store